CZ-6A DEB, 54591

Orbit data source: Space-Track

CZ-6A DEB, 54591 is space debris in SSO originally from a launch on Fri, 11 Nov 2022 UTC launched from the Taiyaun Space Center, China (TSC). Debris objects in space refer to the collection of defunct objects orbiting the Earth. Examples of debris include non-operational satellites, rocket bodies, and fragments generated from explosions, collisions, or faulty payload assembly.

Loading next visibility...
Identifier
54591, 2022-151MR
Orbit
SSO
Country
Flag of CNCN / PRC
Related business
Manufacturer
SAST
Mission
Spacecraft
Bus & Motor
Unknown
Mass
Unknown
Launch date (UTC)
2022-11-11 (3 years ago)
Launch vehicle
Unknown
Launch site
Taiyaun Space Center, China (TSC)
Object type
Payload
Rocket body
Debris
Shape & HBR
Unknown shape, 0.1 m
Radar Cross Section
Small (<0.1 m²)

Expand to show TLE details & history
Last TLE update: 22 hours ago

TLE from 22 hours ago
0 CZ-6A DEB
1 54591U 22151MR  25351.17083677  .00016570  00000-0  20738-2 0  9991
2 54591  98.7260  67.3886 0098157 112.4120 248.7523 14.78956853 89573
Epoch: 2025-12-17T04:06Z
TLE epoch observation values (Epoch: 2025-12-17T04:06:00.296Z)
Latitude
-0.00002°
Longitude
-80.15716°
Altitude
661.141 km
Speed
7.513 km/s
True Right ascension
04h 29m 33s
True Declination
0° 00' 00"
Sunlit
Object was in full shadow at epoch
Visualization orbit readout
Latitude
Unknown
Longitude
Unknown
Altitude
Unknown
Speed
Unknown
Apparent Right ascension
Unknown
Apparent Declination
Unknown
Sunlit
N/A
Visualization observer readout
Local Sidereal Time
00:26:43
Azimuth
Unknown
Elevation
Unknown
Doppler factor
Unknown
Orbital elements
Apogee altitude
698.486 km
Perigee altitude
560.913 km
Semi-major axis
7,007.836 km
Eccentricity
0.00982
Inclination
98.726°
RAAN
67.3886°
Arg. of periapsis
112.412°
True anomaly
247.70866°
Mean anomaly
248.7523°
Eccentric anomaly
248.23001°
Mean motion
3.69971 °/min
Orbital period
97.31 mins
BSTAR
0.0020738
Loading maneuver chart data...
Computing Atmospheric mass density...
Loading historical data...
Loading historical data...
Loading historical data...
Loading historical data...
Loading historical data...
Loading historical data...
Loading historical data...

Documentation

Showing up to 5 results
|